Overview Statistics Trail Chart Weather Telemetry Raw packets
 

This is the latest recevied weather packets stored in our database for station/object N1YZ. If no packets are shown the sender has not sent any weather packets the latest 10 day(s).

<< 41 42 43 44 45 46 47 >>
Time Temp. Humidity Pressure Rain* Wind** Luminosity Snow
1788378091 35° C 48% 1036.2 hPa 0 mm - 82 W/m² -
1788377786 35° C 50% 1036.5 hPa 0 mm - 89 W/m² -
1788377481 35° C 52% 1036.2 hPa 0 mm - 79 W/m² -
1788377180 35° C 53% 1036.4 hPa 0 mm - 74 W/m² -
1788376878 35° C 51% 1036.6 hPa 0 mm - 68 W/m² -
1788376573 35° C 55% 1036.7 hPa 0 mm - 100 W/m² -
1788376268 35° C 53% 1036.8 hPa 0 mm - 79 W/m² -
1788375964 35.56° C 51% 1036.9 hPa 0 mm - 76 W/m² -
1788375659 36.11° C 53% 1036.7 hPa 0 mm - 83 W/m² -
1788375354 35.56° C 52% 1036.8 hPa 0 mm - 653 W/m² -
1788375050 35° C 51% 1036.8 hPa 0 mm - 643 W/m² -
1788374744 34.44° C 55% 1037 hPa 0 mm - 650 W/m² -
1788374439 35.56° C 54% 1037.1 hPa 0 mm - 85 W/m² -
1788374131 35° C 53% 1037.1 hPa 0 mm - 337 W/m² -
1788373827 34.44° C 55% 1037.5 hPa 0 mm - 675 W/m² -
1788373523 35.56° C 52% 1037.5 hPa 0 mm - 66 W/m² -
1788373219 35° C 53% 1037.4 hPa 0 mm - 130 W/m² -
1788372914 33.89° C 55% 1037.5 hPa 0 mm - 680 W/m² -
1788372608 33.89° C 57% 1037.5 hPa 0 mm - 89 W/m² -
1788372303 35° C 56% 1037.4 hPa 0 mm - 417 W/m² -
1788371999 35° C 56% 1037.3 hPa 0 mm - 204 W/m² -
1788371699 35° C 52% 1037.5 hPa 0 mm - 139 W/m² -
1788371394 35° C 55% 1037.6 hPa 0 mm - 251 W/m² -
1788371091 34.44° C 56% 1037.6 hPa 0 mm - 112 W/m² -
1788370786 33.89° C 56% 1037.7 hPa 0 mm - 552 W/m² -

* Rain latest hour (hover to see other rain measurements)
** Current wind speed in m/s (hover to see current wind gust speed)